Location: Newark
(48.6461°N, 4.3644°W)
Time: 11:21:32
(UTC+00:00)

S-56A Canister/Altair - Pass Details

Date: 27 January 2020
Orbit: 633 x 2500 km, 38.9° (Epoch: 25 February)

Event Time Altitude Azimuth Distance (km) Brightness Sun altitude
Rises 00:13:53 0° 261° (W) 3,151 - -59.8°
Reaches altitude 10° 00:17:11 10° 240° (WSW) 2,083 - -59.9°
Maximum altitude 00:20:01 16° 201° (SSW) 1,644 - -59.9°
Drops below altitude 10° 00:22:47 10° 162° (SSE) 2,008 - -60.0°
Sets 00:25:53 0° 140° (SE) 2,981 - -60.0°
